Terug naar catalogus

BREEZE-M DEB

ActiefHEO
NORAD 32036·DEBRIS·🇷🇺 Russia

Gelanceerd Feb 28, 2006 vanaf Baikonur Cosmodrome

Loading…

Volgende Passages (komende 24 uur)

TLE

VersSource: Space-Track

Epoch: Sep 14, 2026, 02:56 UTC

1 32036U 06006P   26257.12244619  .00000817  00000-0  90724-3 0  9998
2 32036  51.6709  57.4025 5090360 102.0176 317.2315  5.29611537375227

Volg BREEZE-M DEB in realtime met AllMySat

Download on the App Store